N1LD LFSB-KRDU

Flight info

Callsign N1LD
Flight time N/A
Altitude 34000
Route ELBEG DCT DEVDI DCT LUVAL DCT ARSIL DCT ESTOC UT300 SENLO UN502 JSY DCT DOLUR DCT LULOX DCT UNLID DCT LIMRI/M080F340 DCT 5220N DCT 5130N DCT 5040N DCT 4950N DCT JOOPY/N0459F340 N332A ALLEX Q822 ENE Q480 BEEKN Q439 BLENO Q97 YAZUU Q167 ZJAAY TAQLE3
Aircraft B737/M-SDE2E3FGHIRWXY/LB1

Departure

Time N/A
Airport EuroAirport Basel–Mulhouse–Freiburg (LFSB)

Arrival

Time 2026-04-30 11:43
Airport Raleigh-Durham International Airport (KRDU)
Time Latitude Longitude Altitude Speed Heading
2026-04-30 11:13 37.31311 -76.41613 27710 ft 364 kts 237°
2026-04-30 11:13 37.29693 -76.44103 26396 ft 372 kts 236°
2026-04-30 11:13 37.28038 -76.46646 25135 ft 380 kts 235°
2026-04-30 11:13 37.26347 -76.49238 24300 ft 385 kts 234°
2026-04-30 11:14 37.24618 -76.51909 23905 ft 406 kts 235°
2026-04-30 11:14 37.22825 -76.54713 23668 ft 417 kts 234°
2026-04-30 11:14 37.21009 -76.57553 23492 ft 417 kts 234°
2026-04-30 11:14 37.19220 -76.60347 23350 ft 416 kts 234°
2026-04-30 11:15 37.17409 -76.63169 23174 ft 415 kts 234°
2026-04-30 11:15 37.15603 -76.65981 23049 ft 414 kts 234°
2026-04-30 11:15 37.13796 -76.68792 22920 ft 413 kts 234°
2026-04-30 11:15 37.11992 -76.71596 22794 ft 413 kts 234°
2026-04-30 11:16 37.10191 -76.74394 22661 ft 413 kts 234°
2026-04-30 11:16 37.08390 -76.77189 22541 ft 412 kts 234°
2026-04-30 11:16 37.06584 -76.79990 22416 ft 412 kts 234°
2026-04-30 11:16 37.04784 -76.82781 22298 ft 412 kts 234°
2026-04-30 11:17 37.02986 -76.85564 22166 ft 411 kts 234°
2026-04-30 11:17 37.01191 -76.88343 22063 ft 410 kts 235°
2026-04-30 11:17 36.99399 -76.91112 21928 ft 409 kts 235°
2026-04-30 11:17 36.97609 -76.93876 21717 ft 411 kts 234°
2026-04-30 11:18 36.95805 -76.96656 21433 ft 410 kts 234°
2026-04-30 11:18 36.92227 -77.02152 20869 ft 406 kts 234°
2026-04-30 11:18 36.90450 -77.04880 20587 ft 404 kts 234°
2026-04-30 11:19 36.88678 -77.07600 20306 ft 402 kts 234°
2026-04-30 11:19 36.86914 -77.10307 20025 ft 401 kts 234°
2026-04-30 11:19 36.85175 -77.12973 19749 ft 400 kts 234°
2026-04-30 11:19 36.83419 -77.15664 19464 ft 399 kts 234°
2026-04-30 11:20 36.81668 -77.18345 19188 ft 398 kts 234°
2026-04-30 11:20 36.79920 -77.21017 18918 ft 396 kts 234°
2026-04-30 11:20 36.78176 -77.23672 18635 ft 395 kts 233°
2026-04-30 11:20 36.76420 -77.26303 18362 ft 394 kts 233°
2026-04-30 11:21 36.74665 -77.28911 18081 ft 392 kts 233°
2026-04-30 11:21 36.72915 -77.31506 17772 ft 390 kts 233°
2026-04-30 11:21 36.71173 -77.34088 17483 ft 388 kts 233°
2026-04-30 11:21 36.69435 -77.36664 17198 ft 387 kts 233°
2026-04-30 11:22 36.67705 -77.39231 16925 ft 386 kts 233°
2026-04-30 11:22 36.65984 -77.41784 16656 ft 384 kts 233°
2026-04-30 11:22 36.64265 -77.44334 16381 ft 384 kts 233°
2026-04-30 11:22 36.62551 -77.46875 16108 ft 383 kts 233°
2026-04-30 11:23 36.60840 -77.49410 15846 ft 382 kts 233°
2026-04-30 11:23 36.59128 -77.51944 15579 ft 381 kts 233°
2026-04-30 11:23 36.55725 -77.56975 15022 ft 380 kts 233°
2026-04-30 11:24 36.54024 -77.59488 14769 ft 379 kts 233°
2026-04-30 11:24 36.52325 -77.61995 14503 ft 378 kts 233°
2026-04-30 11:24 36.50653 -77.64460 14239 ft 377 kts 233°
2026-04-30 11:25 36.47280 -77.69428 13718 ft 374 kts 233°
2026-04-30 11:25 36.45601 -77.71899 13429 ft 373 kts 233°
2026-04-30 11:25 36.42263 -77.76805 12876 ft 370 kts 233°
2026-04-30 11:26 36.38955 -77.81661 12356 ft 367 kts 233°
2026-04-30 11:26 36.37307 -77.84076 12098 ft 366 kts 233°
2026-04-30 11:26 36.35666 -77.86482 11828 ft 365 kts 233°
2026-04-30 11:27 36.34026 -77.88882 11590 ft 360 kts 233°
2026-04-30 11:27 36.32442 -77.91195 11354 ft 344 kts 233°
2026-04-30 11:27 36.30950 -77.93372 11097 ft 326 kts 233°
2026-04-30 11:27 36.29517 -77.95465 10868 ft 310 kts 233°
2026-04-30 11:28 36.26864 -77.99341 10549 ft 280 kts 234°
2026-04-30 11:28 36.25631 -78.01138 10370 ft 268 kts 234°
2026-04-30 11:28 36.24448 -78.02863 10191 ft 258 kts 234°
2026-04-30 11:29 36.23312 -78.04535 10012 ft 251 kts 237°
2026-04-30 11:29 36.22468 -78.06395 9712 ft 246 kts 249°
2026-04-30 11:29 36.21078 -78.10274 9081 ft 248 kts 249°
2026-04-30 11:30 36.19755 -78.14174 8686 ft 243 kts 251°
2026-04-30 11:30 36.19115 -78.16110 8493 ft 242 kts 251°
2026-04-30 11:30 36.18482 -78.18018 8318 ft 244 kts 251°
2026-04-30 11:31 36.17833 -78.19970 8133 ft 247 kts 251°
2026-04-30 11:31 36.17171 -78.21948 7953 ft 250 kts 251°
2026-04-30 11:31 36.16504 -78.23936 7736 ft 250 kts 250°
2026-04-30 11:31 36.15834 -78.25929 7555 ft 250 kts 250°
2026-04-30 11:32 36.15165 -78.27919 7365 ft 250 kts 251°
2026-04-30 11:32 36.14656 -78.29969 7183 ft 249 kts 259°
2026-04-30 11:32 36.14305 -78.32062 6998 ft 248 kts 261°
2026-04-30 11:33 36.13627 -78.36112 6614 ft 233 kts 260°
2026-04-30 11:33 36.13288 -78.38040 6433 ft 226 kts 260°
2026-04-30 11:33 36.12956 -78.39903 6279 ft 217 kts 260°
2026-04-30 11:33 36.12638 -78.41677 6117 ft 205 kts 260°
2026-04-30 11:34 36.12189 -78.43260 5980 ft 194 kts 242°
2026-04-30 11:34 36.11449 -78.44602 5886 ft 179 kts 240°
2026-04-30 11:34 36.10781 -78.45823 5768 ft 164 kts 241°
2026-04-30 11:34 36.10167 -78.46953 5686 ft 157 kts 241°
2026-04-30 11:35 36.09566 -78.48064 5633 ft 157 kts 241°
2026-04-30 11:35 36.09157 -78.48821 5586 ft 156 kts 241°
2026-04-30 11:35 36.08555 -78.49936 5512 ft 155 kts 241°
2026-04-30 11:35 36.07761 -78.51405 5412 ft 155 kts 241°
2026-04-30 11:36 36.07357 -78.52152 5374 ft 155 kts 241°
2026-04-30 11:36 36.06757 -78.53263 5294 ft 156 kts 241°
2026-04-30 11:36 36.06156 -78.54376 5220 ft 156 kts 240°
2026-04-30 11:36 36.05552 -78.55492 5144 ft 157 kts 240°
2026-04-30 11:37 36.04939 -78.56610 5062 ft 158 kts 238°
2026-04-30 11:37 36.04020 -78.58031 4892 ft 161 kts 232°
2026-04-30 11:37 36.03505 -78.58700 4733 ft 162 kts 230°
2026-04-30 11:37 36.02712 -78.59686 4532 ft 162 kts 229°
2026-04-30 11:38 36.01916 -78.60666 4316 ft 161 kts 229°
2026-04-30 11:38 36.01124 -78.61642 4104 ft 161 kts 230°
2026-04-30 11:38 36.00344 -78.62602 3892 ft 153 kts 229°
2026-04-30 11:38 35.99603 -78.63514 3692 ft 150 kts 230°
2026-04-30 11:39 35.98888 -78.64396 3515 ft 142 kts 229°
2026-04-30 11:39 35.98203 -78.65241 3319 ft 136 kts 230°
2026-04-30 11:39 35.97530 -78.66073 3141 ft 139 kts 230°
2026-04-30 11:39 35.96836 -78.66929 2947 ft 141 kts 230°
2026-04-30 11:40 35.96150 -78.67775 2758 ft 138 kts 230°
2026-04-30 11:40 35.95459 -78.68628 2579 ft 141 kts 231°
2026-04-30 11:40 35.94758 -78.69493 2389 ft 143 kts 231°
2026-04-30 11:40 35.94058 -78.70355 2182 ft 145 kts 232°
2026-04-30 11:41 35.93356 -78.71221 2004 ft 141 kts 231°
2026-04-30 11:41 35.92663 -78.72076 1816 ft 140 kts 233°
2026-04-30 11:41 35.91964 -78.72941 1634 ft 144 kts 233°
2026-04-30 11:41 35.91256 -78.73814 1433 ft 142 kts 233°
2026-04-30 11:42 35.90558 -78.74677 1261 ft 140 kts 230°
2026-04-30 11:42 35.89876 -78.75518 1079 ft 136 kts 230°
2026-04-30 11:42 35.89204 -78.76348 897 ft 137 kts 227°
2026-04-30 11:42 35.88537 -78.77171 703 ft 135 kts 225°
2026-04-30 11:43 35.87870 -78.77999 466 ft 137 kts 224°
2026-04-30 11:43 35.87259 -78.78751 435 ft 108 kts 226°
2026-04-30 11:43 35.86867 -78.79238 436 ft 37 kts 225°
2026-04-30 11:43 35.86775 -78.79441 433 ft 6 kts 273°
2026-04-30 11:44 35.86801 -78.79476 435 ft 6 kts 346°
2026-04-30 11:44 35.86843 -78.79455 434 ft 8 kts 33°
2026-04-30 11:44 35.86914 -78.79362 430 ft 23 kts 47°
2026-04-30 11:44 35.87058 -78.79190 429 ft 32 kts 43°
2026-04-30 11:45 35.87217 -78.78999 429 ft 31 kts 49°
2026-04-30 11:45 35.87361 -78.78816 426 ft 29 kts 45°
2026-04-30 11:45 35.87499 -78.78649 434 ft 27 kts 44°
2026-04-30 11:45 35.87628 -78.78492 432 ft 25 kts 44°
2026-04-30 11:46 35.87722 -78.78398 427 ft 12 kts 352°
2026-04-30 11:46 35.87790 -78.78399 434 ft 12 kts 46°
2026-04-30 11:46 35.87855 -78.78405 430 ft 12 kts 311°
2026-04-30 11:46 35.87922 -78.78446 429 ft 12 kts 18°
2026-04-30 11:47 35.87956 -78.78413 430 ft 0 kts 46°